When you browse on this site, cookies collect data to enhance your experience and personalize the content and advertising you see.
Visit our Privacy Policy to learn more. By continuing to use the site, you agree to this use of cookies and data.
  • In Schweiz
  • Länderverzeichnis
  • Für 7 Tage
  • Wassertemperatur
  • Satellitenkarten
  • Wetterkarte
  • Widgets
  • user-avatar
    Anmelden

    Stündliche Wetter Goldene Küste

    Heute, 21 März, Donnerstag

    Zeit Temperatur Niederschläge Wind Luftdruck Luftfeuchtigkeit
    00:00 +24°C° 0.1 mm 3 m/S 755 mmHg 92%
    01:00 +24°C° 0.1 mm 3 m/S 755 mmHg 92%
    02:00 +22°C° 0.1 mm 3 m/S 755 mmHg 93%
    03:00 +22°C° 0.1 mm 3 m/S 755 mmHg 93%
    04:00 +22°C° 0 mm 3 m/S 756 mmHg 92%
    05:00 +22°C° 0 mm 3 m/S 756 mmHg 92%
    06:00 +24°C° 0 mm 3 m/S 756 mmHg 91%
    07:00 +24°C° 0 mm 3 m/S 756 mmHg 90%
    08:00 +26°C° 0 mm 3 m/S 756 mmHg 80%
    09:00 +28°C° 0 mm 2 m/S 756 mmHg 71%
    10:00 +31°C° 0 mm 1 m/S 757 mmHg 59%
    11:00 +30°C° 0.1 mm 2 m/S 756 mmHg 62%
    12:00 +30°C° 0.1 mm 2 m/S 756 mmHg 64%
    13:00 +29°C° 0.1 mm 3 m/S 756 mmHg 67%
    14:00 +29°C° 0.1 mm 3 m/S 756 mmHg 68%
    15:00 +29°C° 0.1 mm 3 m/S 756 mmHg 68%
    16:00 +29°C° 0 mm 4 m/S 755 mmHg 70%
    17:00 +28°C° 0 mm 3 m/S 756 mmHg 76%
    18:00 +27°C° 0 mm 3 m/S 756 mmHg 81%
    19:00 +25°C° 0 mm 3 m/S 757 mmHg 86%
    20:00 +25°C° 0.8 mm 3 m/S 757 mmHg 88%
    21:00 +24°C° 0.8 mm 2 m/S 757 mmHg 90%
    22:00 +24°C° 0.8 mm 2 m/S 758 mmHg 92%
    23:00 +24°C° 0.4 mm 2 m/S 758 mmHg 92%

    Morgen, 22 März, Freitag

    Zeit Temperatur Niederschläge Wind Luftdruck Luftfeuchtigkeit
    00:00 +24°C° 0.4 mm 2 m/S 758 mmHg 93%
    01:00 +23°C° 0.4 mm 2 m/S 758 mmHg 93%
    02:00 +23°C° 1 mm 1 m/S 758 mmHg 94%
    03:00 +23°C° 1 mm 1 m/S 757 mmHg 95%
    04:00 +23°C° 1 mm 1 m/S 757 mmHg 96%
    05:00 +23°C° 0 mm 1 m/S 758 mmHg 95%
    06:00 +23°C° 0 mm 2 m/S 758 mmHg 94%
    07:00 +24°C° 0 mm 2 m/S 759 mmHg 94%
    08:00 +26°C° 0 mm 2 m/S 759 mmHg 83%
    09:00 +28°C° 0 mm 2 m/S 759 mmHg 73%
    10:00 +30°C° 0 mm 2 m/S 759 mmHg 62%
    11:00 +30°C° 0.1 mm 2 m/S 758 mmHg 63%
    12:00 +30°C° 0.1 mm 2 m/S 758 mmHg 64%
    13:00 +30°C° 0.1 mm 3 m/S 757 mmHg 65%
    14:00 +30°C° 0.2 mm 2 m/S 757 mmHg 67%
    15:00 +29°C° 0.2 mm 2 m/S 757 mmHg 69%
    16:00 +29°C° 0.2 mm 2 m/S 756 mmHg 71%
    17:00 +28°C° 0.2 mm 2 m/S 757 mmHg 76%
    18:00 +26°C° 0.2 mm 2 m/S 757 mmHg 82%
    19:00 +25°C° 0.2 mm 2 m/S 757 mmHg 88%
    20:00 +25°C° 0.2 mm 2 m/S 758 mmHg 89%
    21:00 +25°C° 0.2 mm 2 m/S 758 mmHg 89%
    22:00 +24°C° 0.2 mm 2 m/S 758 mmHg 90%
    23:00 +24°C° 0.4 mm 2 m/S 758 mmHg 91%

    übermorgen, 23 März, Samstag

    Zeit Temperatur Niederschläge Wind Luftdruck Luftfeuchtigkeit
    00:00 +24°C° 0.4 mm 2 m/S 758 mmHg 92%
    01:00 +24°C° 0.4 mm 2 m/S 757 mmHg 93%
    02:00 +24°C° 0.6 mm 1 m/S 757 mmHg 93%
    03:00 +24°C° 0.6 mm 1 m/S 757 mmHg 93%
    04:00 +24°C° 0.6 mm 1 m/S 757 mmHg 93%
    05:00 +24°C° 0.8 mm 1 m/S 757 mmHg 93%
    06:00 +24°C° 0.8 mm 1 m/S 758 mmHg 93%
    07:00 +24°C° 0.8 mm 1 m/S 758 mmHg 93%
    08:00 +26°C° 0.3 mm 1 m/S 758 mmHg 85%
    09:00 +28°C° 0.3 mm 1 m/S 758 mmHg 76%
    10:00 +30°C° 0.3 mm 1 m/S 758 mmHg 67%
    11:00 +31°C° 0.2 mm 2 m/S 758 mmHg 62%
    12:00 +32°C° 0.2 mm 2 m/S 757 mmHg 57%
    13:00 +34°C° 0.2 mm 3 m/S 757 mmHg 52%
    14:00 +33°C° 0.2 mm 3 m/S 756 mmHg 56%
    15:00 +31°C° 0.2 mm 3 m/S 756 mmHg 61%
    16:00 +30°C° 0.2 mm 4 m/S 756 mmHg 65%
    17:00 +29°C° 0 mm 3 m/S 756 mmHg 72%
    18:00 +27°C° 0 mm 3 m/S 756 mmHg 78%
    19:00 +26°C° 0 mm 3 m/S 756 mmHg 85%
    20:00 +25°C° 0 mm 3 m/S 757 mmHg 86%
    21:00 +25°C° 0 mm 3 m/S 757 mmHg 88%
    22:00 +25°C° 0 mm 3 m/S 758 mmHg 89%
    23:00 +25°C° 0 mm 3 m/S 758 mmHg 90%

    24 März, Sonntag

    Zeit Temperatur Niederschläge Wind Luftdruck Luftfeuchtigkeit
    00:00 +24°C° 0 mm 3 m/S 758 mmHg 91%
    01:00 +24°C° 0 mm 3 m/S 757 mmHg 92%
    02:00 +24°C° 0 mm 2 m/S 757 mmHg 92%
    03:00 +24°C° 0 mm 2 m/S 757 mmHg 93%
    04:00 +23°C° 0 mm 2 m/S 757 mmHg 93%
    05:00 +24°C° 0 mm 2 m/S 757 mmHg 91%
    06:00 +24°C° 0 mm 2 m/S 758 mmHg 88%
    07:00 +24°C° 0 mm 2 m/S 758 mmHg 86%
    08:00 +27°C° 0 mm 2 m/S 758 mmHg 76%
    09:00 +29°C° 0 mm 2 m/S 758 mmHg 66%
    10:00 +31°C° 0 mm 3 m/S 758 mmHg 56%
    11:00 +33°C° 0 mm 3 m/S 758 mmHg 52%
    12:00 +34°C° 0 mm 3 m/S 757 mmHg 49%
    13:00 +35°C° 0 mm 3 m/S 757 mmHg 45%
    14:00 +35°C° 0 mm 4 m/S 756 mmHg 49%
    15:00 +34°C° 0 mm 4 m/S 756 mmHg 52%
    16:00 +33°C° 0 mm 4 m/S 756 mmHg 56%
    17:00 +30°C° 0 mm 4 m/S 756 mmHg 65%
    18:00 +28°C° 0 mm 4 m/S 756 mmHg 74%
    19:00 +26°C° 0 mm 4 m/S 757 mmHg 83%
    20:00 +26°C° 0 mm 3 m/S 757 mmHg 85%
    21:00 +26°C° 0 mm 3 m/S 758 mmHg 88%
    22:00 +25°C° 0 mm 3 m/S 758 mmHg 90%
    23:00 +25°C° 0 mm 3 m/S 758 mmHg 91%

    25 März, Montag

    Zeit Temperatur Niederschläge Wind Luftdruck Luftfeuchtigkeit
    00:00 +25°C° 0 mm 3 m/S 758 mmHg 92%
    01:00 +25°C° 0 mm 2 m/S 758 mmHg 93%
    02:00 +24°C° 0 mm 2 m/S 758 mmHg 93%
    03:00 +24°C° 0 mm 2 m/S 758 mmHg 93%
    04:00 +24°C° 0 mm 2 m/S 758 mmHg 93%
    05:00 +24°C° 0 mm 3 m/S 758 mmHg 90%
    06:00 +25°C° 0 mm 3 m/S 758 mmHg 88%
    07:00 +25°C° 0 mm 3 m/S 758 mmHg 86%
    08:00 +27°C° 0 mm 3 m/S 758 mmHg 77%
    09:00 +29°C° 0 mm 3 m/S 758 mmHg 69%
    10:00 +30°C° 0 mm 3 m/S 758 mmHg 60%
    11:00 +31°C° 0 mm 3 m/S 758 mmHg 57%
    12:00 +33°C° 0 mm 4 m/S 757 mmHg 54%
    13:00 +34°C° 0 mm 4 m/S 757 mmHg 51%
    14:00 +33°C° 0 mm 4 m/S 756 mmHg 55%
    15:00 +32°C° 0 mm 4 m/S 756 mmHg 58%
    16:00 +30°C° 0 mm 4 m/S 756 mmHg 62%
    17:00 +29°C° 0 mm 4 m/S 756 mmHg 70%
    18:00 +27°C° 0 mm 4 m/S 756 mmHg 77%
    19:00 +26°C° 0 mm 3 m/S 757 mmHg 84%
    20:00 +26°C° 0 mm 3 m/S 757 mmHg 86%
    21:00 +25°C° 0 mm 3 m/S 758 mmHg 89%
    22:00 +25°C° 0 mm 3 m/S 758 mmHg 91%
    23:00 +25°C° 0 mm 3 m/S 758 mmHg 91%

    26 März, Dienstag

    Zeit Temperatur Niederschläge Wind Luftdruck Luftfeuchtigkeit
    00:00 +25°C° 0 mm 4 m/S 757 mmHg 91%
    01:00 +25°C° 0 mm 4 m/S 757 mmHg 92%
    02:00 +25°C° 0 mm 3 m/S 757 mmHg 92%
    03:00 +25°C° 0 mm 3 m/S 757 mmHg 91%
    04:00 +25°C° 0 mm 3 m/S 756 mmHg 91%
    05:00 +25°C° 0 mm 3 m/S 757 mmHg 90%
    06:00 +25°C° 0 mm 3 m/S 757 mmHg 89%
    07:00 +25°C° 0 mm 3 m/S 758 mmHg 88%
    08:00 +27°C° 0 mm 3 m/S 758 mmHg 78%
    09:00 +29°C° 0 mm 3 m/S 758 mmHg 68%
    10:00 +31°C° 0 mm 3 m/S 759 mmHg 58%
    11:00 +33°C° 0 mm 3 m/S 758 mmHg 55%
    12:00 +34°C° 0 mm 2 m/S 757 mmHg 52%
    13:00 +35°C° 0 mm 2 m/S 756 mmHg 48%
    14:00 +32°C° 0.1 mm 2 m/S 756 mmHg 56%
    15:00 +30°C° 0.1 mm 2 m/S 756 mmHg 63%
    16:00 +29°C° 0.1 mm 3 m/S 756 mmHg 70%
    17:00 +28°C° 0.4 mm 2 m/S 757 mmHg 76%
    18:00 +26°C° 0.4 mm 2 m/S 757 mmHg 82%
    19:00 +25°C° 0.4 mm 2 m/S 758 mmHg 88%
    20:00 +25°C° 0.2 mm 3 m/S 758 mmHg 88%
    21:00 +25°C° 0.2 mm 3 m/S 759 mmHg 89%
    22:00 +25°C° 0.2 mm 3 m/S 759 mmHg 89%
    23:00 +25°C° 0.3 mm 3 m/S 759 mmHg 89%
    Mehr zeigen